Time,TemperatureF,DewpointF,PressureIn,WindDirection,WindDirectionDegrees,WindSpeedMPH,WindSpeedGustMPH,Humidity,HourlyPrecipIn,Conditions,Clouds,dailyrainin,SoftwareType,DateUTC
2013-04-01 00:00:00,37.2,34.2,29.87,NE,45,0.0,0.0,89,0.10,,,0.12,WUHU21623XXSP,2013-04-01 04:00:00,
2013-04-01 00:05:00,37.2,34.2,29.87,NE,45,0.0,0.0,89,0.10,,,0.00,WUHU21623XXSP,2013-04-01 04:05:00,
2013-04-01 00:10:00,37.0,34.1,29.86,NNE,22,0.0,1.1,89,0.08,,,0.00,WUHU21623XXSP,2013-04-01 04:10:00,
2013-04-01 00:12:00,37.0,34.1,29.87,NNE,22,0.0,1.1,89,0.08,,,0.00,WUHU21623XXSP,2013-04-01 04:12:00,
2013-04-01 00:17:00,37.6,34.6,29.86,NE,45,0.0,1.6,89,0.10,,,0.02,WUHU21623XXSP,2013-04-01 04:17:00,
2013-04-01 00:22:00,37.2,34.2,29.86,NE,45,0.0,1.6,89,0.10,,,0.02,WUHU21623XXSP,2013-04-01 04:22:00,
2013-04-01 00:27:00,37.2,34.2,29.86,ESE,112,0.0,0.0,89,0.12,,,0.04,WUHU21623XXSP,2013-04-01 04:27:00,
2013-04-01 00:32:00,37.2,34.2,29.85,ESE,112,0.0,0.0,89,0.08,,,0.04,WUHU21623XXSP,2013-04-01 04:32:00,
2013-04-01 00:37:00,37.2,34.2,29.85,NNE,22,1.3,4.3,89,0.08,,,0.04,WUHU21623XXSP,2013-04-01 04:37:00,
2013-04-01 00:42:00,37.2,34.2,29.85,ENE,67,0.0,5.4,89,0.08,,,0.04,WUHU21623XXSP,2013-04-01 04:42:00,
2013-04-01 00:47:00,37.2,34.2,29.84,ENE,67,0.0,5.4,89,0.06,,,0.04,WUHU21623XXSP,2013-04-01 04:47:00,
2013-04-01 00:52:00,37.2,34.2,29.84,ENE,67,0.0,2.0,89,0.06,,,0.06,WUHU21623XXSP,2013-04-01 04:52:00,
2013-04-01 00:58:00,37.2,34.2,29.84,NE,45,0.0,2.0,89,0.06,,,0.06,WUHU21623XXSP,2013-04-01 04:58:00,
2013-04-01 01:02:00,37.2,34.2,29.84,ENE,67,0.0,2.0,89,0.08,,,0.08,WUHU21623XXSP,2013-04-01 05:02:00,
2013-04-01 01:08:00,37.2,34.2,29.84,ENE,67,0.0,0.0,89,0.08,,,0.08,WUHU21623XXSP,2013-04-01 05:08:00,
2013-04-01 01:13:00,37.2,34.2,29.84,ENE,67,0.0,0.0,89,0.06,,,0.08,WUHU21623XXSP,2013-04-01 05:13:00,
2013-04-01 01:18:00,37.0,34.1,29.83,East,90,0.0,3.4,89,0.08,,,0.10,WUHU21623XXSP,2013-04-01 05:18:00,
2013-04-01 01:23:00,37.0,34.1,29.83,East,90,0.0,3.4,89,0.10,,,0.12,WUHU21623XXSP,2013-04-01 05:23:00,
2013-04-01 01:28:00,36.9,33.9,29.83,NE,45,0.0,2.7,89,0.10,,,0.14,WUHU21623XXSP,2013-04-01 05:28:00,
2013-04-01 01:33:00,36.5,33.5,29.82,East,90,0.0,6.7,89,0.10,,,0.14,WUHU21623XXSP,2013-04-01 05:33:00,
2013-04-01 01:38:00,36.3,33.3,29.82,ESE,112,0.0,6.7,89,0.12,,,0.16,WUHU21623XXSP,2013-04-01 05:38:00,
2013-04-01 01:43:00,36.1,33.2,29.82,NNE,22,0.0,2.2,89,0.12,,,0.16,WUHU21623XXSP,2013-04-01 05:43:00,
2013-04-01 01:48:00,36.1,33.2,29.81,NNE,22,0.0,1.1,89,0.10,,,0.16,WUHU21623XXSP,2013-04-01 05:48:00,
2013-04-01 01:53:00,36.0,33.0,29.81,NNE,22,0.0,0.0,89,0.10,,,0.16,WUHU21623XXSP,2013-04-01 05:53:00,
2013-04-01 01:58:00,36.0,33.0,29.81,NNE,22,0.0,0.0,89,0.10,,,0.18,WUHU21623XXSP,2013-04-01 05:58:00,
2013-04-01 02:03:00,35.8,32.8,29.81,NNE,22,0.0,0.7,89,0.10,,,0.18,WUHU21623XXSP,2013-04-01 06:03:00,
2013-04-01 02:08:00,35.8,32.8,29.80,NNE,22,0.0,2.7,89,0.10,,,0.18,WUHU21623XXSP,2013-04-01 06:08:00,
2013-04-01 02:13:00,35.8,33.1,29.80,NNE,22,0.0,2.7,90,0.10,,,0.20,WUHU21623XXSP,2013-04-01 06:13:00,
2013-04-01 02:18:00,35.8,33.1,29.79,NNE,22,0.0,0.0,90,0.08,,,0.20,WUHU21623XXSP,2013-04-01 06:18:00,
2013-04-01 02:23:00,35.4,32.7,29.79,NNE,22,0.0,0.0,90,0.08,,,0.20,WUHU21623XXSP,2013-04-01 06:23:00,
2013-04-01 02:28:00,35.4,32.7,29.79,NNE,22,0.0,0.0,90,0.06,,,0.20,WUHU21623XXSP,2013-04-01 06:28:00,
2013-04-01 02:33:00,36.0,33.3,29.77,NNE,22,0.0,0.0,90,0.04,,,0.20,WUHU21623XXSP,2013-04-01 06:33:00,
2013-04-01 02:38:00,35.4,32.7,29.77,NNE,22,0.0,0.0,90,0.04,,,0.20,WUHU21623XXSP,2013-04-01 06:38:00,
2013-04-01 02:43:00,35.4,32.7,29.77,NNE,22,0.0,0.0,90,0.04,,,0.20,WUHU21623XXSP,2013-04-01 06:43:00,
2013-04-01 02:48:00,35.4,32.7,29.77,NNE,22,0.0,0.0,90,0.04,,,0.20,WUHU21623XXSP,2013-04-01 06:48:00,
2013-04-01 02:53:00,35.4,32.7,29.76,NNE,22,0.0,0.0,90,0.04,,,0.20,WUHU21623XXSP,2013-04-01 06:53:00,
2013-04-01 02:58:00,35.4,32.7,29.76,NNE,22,0.0,0.0,90,0.02,,,0.20,WUHU21623XXSP,2013-04-01 06:58:00,
2013-04-01 03:03:00,36.1,33.6,29.76,NNE,22,0.0,0.0,90,0.02,,,0.20,WUHU21623XXSP,2013-04-01 07:03:00,
2013-04-01 03:08:00,35.4,32.7,29.76,NNE,22,0.0,0.0,90,0.00,,,0.20,WUHU21623XXSP,2013-04-01 07:08:00,
2013-04-01 03:13:00,35.4,32.7,29.75,NNE,22,0.0,0.0,90,0.00,,,0.20,WUHU21623XXSP,2013-04-01 07:13:00,
2013-04-01 03:18:00,35.4,32.7,29.75,NNE,22,0.0,0.0,90,0.02,,,0.22,WUHU21623XXSP,2013-04-01 07:18:00,
2013-04-01 03:23:00,35.4,32.7,29.74,NNE,22,0.0,0.0,90,0.02,,,0.22,WUHU21623XXSP,2013-04-01 07:23:00,
2013-04-01 03:28:00,35.4,32.7,29.74,NNE,22,0.0,0.0,90,0.02,,,0.22,WUHU21623XXSP,2013-04-01 07:28:00,
2013-04-01 03:33:00,35.8,33.1,29.74,NNE,22,0.0,0.0,90,0.02,,,0.22,WUHU21623XXSP,2013-04-01 07:33:00,
2013-04-01 03:38:00,35.8,33.1,29.74,NNE,22,0.0,0.0,90,0.04,,,0.25,WUHU21623XXSP,2013-04-01 07:38:00,
2013-04-01 03:43:00,35.4,32.7,29.74,NNE,22,0.0,0.0,90,0.04,,,0.25,WUHU21623XXSP,2013-04-01 07:43:00,
2013-04-01 03:48:00,35.4,32.7,29.74,NNE,22,0.0,0.0,90,0.04,,,0.25,WUHU21623XXSP,2013-04-01 07:48:00,
2013-04-01 03:53:00,35.4,32.7,29.73,NNE,22,0.0,0.0,90,0.04,,,0.25,WUHU21623XXSP,2013-04-01 07:53:00,
2013-04-01 03:58:00,35.4,32.7,29.73,NNE,22,0.0,0.0,90,0.04,,,0.25,WUHU21623XXSP,2013-04-01 07:58:00,
2013-04-01 04:03:00,35.6,32.9,29.73,NNE,22,0.0,0.0,90,0.04,,,0.25,WUHU21623XXSP,2013-04-01 08:03:00,
2013-04-01 04:08:00,35.4,32.7,29.73,NNE,22,0.0,0.0,90,0.04,,,0.25,WUHU21623XXSP,2013-04-01 08:08:00,
2013-04-01 04:13:00,35.4,32.7,29.72,NNE,22,0.0,0.0,90,0.02,,,0.25,WUHU21623XXSP,2013-04-01 08:13:00,
2013-04-01 04:18:00,36.3,33.6,29.72,NNE,22,0.0,0.0,90,0.02,,,0.25,WUHU21623XXSP,2013-04-01 08:18:00,
2013-04-01 04:23:00,35.8,33.1,29.71,NNE,22,0.0,0.0,90,0.02,,,0.25,WUHU21623XXSP,2013-04-01 08:23:00,
2013-04-01 04:28:00,35.8,33.1,29.71,NNE,22,0.0,0.0,90,0.02,,,0.25,WUHU21623XXSP,2013-04-01 08:28:00,
2013-04-01 04:33:00,36.0,33.3,29.72,NNE,22,0.0,0.0,90,0.02,,,0.25,WUHU21623XXSP,2013-04-01 08:33:00,
2013-04-01 04:38:00,36.0,33.3,29.72,NNE,22,0.0,0.0,90,0.00,,,0.25,WUHU21623XXSP,2013-04-01 08:38:00,
2013-04-01 04:43:00,35.8,33.1,29.72,NNE,22,0.0,0.0,90,0.00,,,0.25,WUHU21623XXSP,2013-04-01 08:43:00,
2013-04-01 04:48:00,35.8,33.1,29.72,NNE,22,0.0,0.0,90,0.00,,,0.25,WUHU21623XXSP,2013-04-01 08:48:00,
2013-04-01 04:53:00,36.1,33.4,29.72,NNE,22,0.0,0.0,90,0.00,,,0.25,WUHU21623XXSP,2013-04-01 08:53:00,
2013-04-01 04:58:00,35.8,33.1,29.71,NNE,22,0.0,0.0,90,0.00,,,0.25,WUHU21623XXSP,2013-04-01 08:58:00,
2013-04-01 05:03:00,35.8,33.1,29.71,NNE,22,0.0,0.0,90,0.00,,,0.25,WUHU21623XXSP,2013-04-01 09:03:00,
2013-04-01 05:08:00,35.8,33.1,29.72,NNE,22,0.0,0.0,90,0.00,,,0.25,WUHU21623XXSP,2013-04-01 09:08:00,
2013-04-01 05:13:00,36.0,33.3,29.71,NNE,22,0.0,0.0,90,0.00,,,0.25,WUHU21623XXSP,2013-04-01 09:13:00,
2013-04-01 05:18:00,35.8,33.1,29.71,NNE,22,0.0,0.0,90,0.00,,,0.25,WUHU21623XXSP,2013-04-01 09:18:00,
2013-04-01 05:23:00,36.1,33.4,29.71,NNE,22,0.0,0.0,90,0.00,,,0.25,WUHU21623XXSP,2013-04-01 09:23:00,
2013-04-01 05:28:00,36.1,33.4,29.71,NNE,22,0.0,0.0,90,0.00,,,0.25,WUHU21623XXSP,2013-04-01 09:28:00,
2013-04-01 05:33:00,36.0,33.3,29.72,NNE,22,0.0,0.0,90,0.00,,,0.25,WUHU21623XXSP,2013-04-01 09:33:00,
2013-04-01 05:38:00,36.7,34.3,29.72,NNE,22,0.0,0.0,91,0.00,,,0.25,WUHU21623XXSP,2013-04-01 09:38:00,
2013-04-01 05:43:00,36.1,33.4,29.72,NNE,22,0.0,0.0,90,0.00,,,0.25,WUHU21623XXSP,2013-04-01 09:43:00,
2013-04-01 05:49:00,36.1,33.4,29.72,NNE,22,0.0,0.0,90,0.00,,,0.25,WUHU21623XXSP,2013-04-01 09:49:00,
2013-04-01 05:54:00,36.1,33.4,29.73,NNE,22,0.0,0.0,90,0.00,,,0.25,WUHU21623XXSP,2013-04-01 09:54:00,
2013-04-01 05:59:00,36.0,33.3,29.72,NNE,22,0.0,0.0,90,0.00,,,0.25,WUHU21623XXSP,2013-04-01 09:59:00,
2013-04-01 06:04:00,36.0,33.3,29.72,NNE,22,0.0,0.0,90,0.00,,,0.25,WUHU21623XXSP,2013-04-01 10:04:00,
2013-04-01 06:09:00,36.1,33.4,29.72,NNE,22,0.0,0.0,90,0.00,,,0.25,WUHU21623XXSP,2013-04-01 10:09:00,
2013-04-01 06:14:00,36.3,33.6,29.72,NNE,22,0.0,0.0,90,0.00,,,0.25,WUHU21623XXSP,2013-04-01 10:14:00,
2013-04-01 06:19:00,37.0,34.6,29.72,NNE,22,0.0,0.0,91,0.00,,,0.25,WUHU21623XXSP,2013-04-01 10:19:00,
2013-04-01 06:24:00,36.3,33.6,29.72,NNE,22,0.0,0.0,90,0.00,,,0.25,WUHU21623XXSP,2013-04-01 10:24:00,
2013-04-01 06:29:00,37.0,34.6,29.73,NNE,22,0.0,0.0,91,0.00,,,0.25,WUHU21623XXSP,2013-04-01 10:29:00,
2013-04-01 06:34:00,36.3,33.6,29.72,NNE,22,0.0,0.0,90,0.00,,,0.25,WUHU21623XXSP,2013-04-01 10:34:00,
2013-04-01 06:39:00,36.1,33.4,29.73,NNE,22,0.0,0.0,90,0.00,,,0.25,WUHU21623XXSP,2013-04-01 10:39:00,
2013-04-01 06:44:00,36.0,33.3,29.73,NNE,22,0.0,0.0,90,0.00,,,0.25,WUHU21623XXSP,2013-04-01 10:44:00,
2013-04-01 06:49:00,36.0,33.3,29.73,NNE,22,0.0,0.0,90,0.00,,,0.25,WUHU21623XXSP,2013-04-01 10:49:00,
2013-04-01 06:54:00,36.0,33.3,29.73,NNE,22,0.0,0.0,90,0.00,,,0.25,WUHU21623XXSP,2013-04-01 10:54:00,
2013-04-01 06:59:00,36.1,33.4,29.73,NNE,22,0.0,0.0,90,0.00,,,0.25,WUHU21623XXSP,2013-04-01 10:59:00,
2013-04-01 07:04:00,36.0,33.3,29.73,NNE,22,0.0,0.0,90,0.00,,,0.25,WUHU21623XXSP,2013-04-01 11:04:00,
2013-04-01 07:09:00,36.0,33.3,29.74,NNE,22,0.0,0.0,90,0.00,,,0.25,WUHU21623XXSP,2013-04-01 11:09:00,
2013-04-01 07:14:00,36.0,33.3,29.74,NNE,22,0.0,0.0,90,0.00,,,0.25,WUHU21623XXSP,2013-04-01 11:14:00,
2013-04-01 07:19:00,36.0,33.3,29.74,NNE,22,0.0,0.0,90,0.00,,,0.25,WUHU21623XXSP,2013-04-01 11:19:00,
2013-04-01 07:24:00,36.0,33.3,29.74,NNE,22,0.0,0.0,90,0.00,,,0.25,WUHU21623XXSP,2013-04-01 11:24:00,
2013-04-01 07:29:00,36.0,33.3,29.74,NNE,22,0.0,0.0,90,0.00,,,0.25,WUHU21623XXSP,2013-04-01 11:29:00,
2013-04-01 07:34:00,36.1,33.4,29.74,NNE,22,0.0,0.0,90,0.00,,,0.25,WUHU21623XXSP,2013-04-01 11:34:00,
2013-04-01 07:39:00,36.9,34.4,29.74,NNE,22,0.0,0.0,91,0.00,,,0.25,WUHU21623XXSP,2013-04-01 11:39:00,
2013-04-01 07:44:00,36.3,33.6,29.74,NNE,22,0.0,0.0,90,0.00,,,0.25,WUHU21623XXSP,2013-04-01 11:44:00,
2013-04-01 07:49:00,36.3,33.6,29.73,NNE,22,0.0,0.0,90,0.00,,,0.25,WUHU21623XXSP,2013-04-01 11:49:00,
2013-04-01 07:54:00,36.1,33.4,29.73,NNE,22,0.0,0.0,90,0.00,,,0.25,WUHU21623XXSP,2013-04-01 11:54:00,
2013-04-01 07:59:00,36.5,33.8,29.73,NNE,22,0.0,0.0,90,0.00,,,0.25,WUHU21623XXSP,2013-04-01 11:59:00,
2013-04-01 08:04:00,36.7,34.3,29.73,NNE,22,0.0,0.0,91,0.00,,,0.25,WUHU21623XXSP,2013-04-01 12:04:00,
2013-04-01 08:09:00,37.0,34.6,29.73,NNE,22,0.0,0.0,91,0.00,,,0.25,WUHU21623XXSP,2013-04-01 12:09:00,
2013-04-01 08:14:00,37.2,34.8,29.73,SE,135,0.0,1.1,91,0.00,,,0.25,WUHU21623XXSP,2013-04-01 12:14:00,
2013-04-01 08:19:00,37.2,34.8,29.74,SSE,157,0.0,1.1,91,0.00,,,0.25,WUHU21623XXSP,2013-04-01 12:19:00,
2013-04-01 08:24:00,37.2,34.8,29.74,SSE,157,0.0,4.7,91,0.00,,,0.25,WUHU21623XXSP,2013-04-01 12:24:00,
2013-04-01 08:29:00,37.4,35.0,29.73,SSE,157,0.0,4.7,91,0.00,,,0.25,WUHU21623XXSP,2013-04-01 12:29:00,
2013-04-01 08:34:00,37.8,35.3,29.73,SSE,157,0.0,2.7,91,0.00,,,0.25,WUHU21623XXSP,2013-04-01 12:34:00,
2013-04-01 08:39:00,37.9,35.5,29.73,SSE,157,0.0,0.0,91,0.00,,,0.25,WUHU21623XXSP,2013-04-01 12:39:00,
2013-04-01 08:44:00,38.5,36.0,29.72,SSE,157,0.0,0.0,91,0.00,,,0.25,WUHU21623XXSP,2013-04-01 12:44:00,
2013-04-01 08:49:00,38.8,36.4,29.71,SSE,157,0.0,0.0,91,0.00,,,0.25,WUHU21623XXSP,2013-04-01 12:49:00,
2013-04-01 08:54:00,39.0,36.6,29.71,ESE,112,0.0,0.0,91,0.00,,,0.25,WUHU21623XXSP,2013-04-01 12:54:00,
2013-04-01 08:59:00,39.4,37.0,29.71,ESE,112,0.0,0.0,91,0.00,,,0.25,WUHU21623XXSP,2013-04-01 12:59:00,
2013-04-01 09:04:00,39.4,37.0,29.71,SE,135,0.0,0.0,91,0.00,,,0.25,WUHU21623XXSP,2013-04-01 13:04:00,
2013-04-01 09:09:00,39.7,37.3,29.71,SE,135,0.0,0.0,91,0.00,,,0.25,WUHU21623XXSP,2013-04-01 13:09:00,
2013-04-01 09:14:00,39.7,37.3,29.71,SSE,157,0.0,2.7,91,0.00,,,0.25,WUHU21623XXSP,2013-04-01 13:14:00,
2013-04-01 09:19:00,39.9,37.5,29.70,SSE,157,0.0,2.7,91,0.00,,,0.25,WUHU21623XXSP,2013-04-01 13:19:00,
2013-04-01 09:24:00,40.1,37.7,29.70,South,180,0.0,1.1,91,0.00,,,0.25,WUHU21623XXSP,2013-04-01 13:24:00,
2013-04-01 09:29:00,39.9,37.5,29.70,ESE,112,0.0,3.6,91,0.00,,,0.25,WUHU21623XXSP,2013-04-01 13:29:00,
2013-04-01 09:34:00,39.9,37.2,29.70,SSW,202,0.0,4.9,90,0.00,,,0.25,WUHU21623XXSP,2013-04-01 13:34:00,
2013-04-01 09:39:00,40.1,37.4,29.70,SSE,157,0.0,4.9,90,0.00,,,0.25,WUHU21623XXSP,2013-04-01 13:39:00,
2013-04-01 09:44:00,40.5,37.8,29.69,SSE,157,0.0,1.6,90,0.00,,,0.25,WUHU21623XXSP,2013-04-01 13:44:00,
2013-04-01 09:49:00,40.6,37.9,29.69,SSE,157,0.0,0.0,90,0.00,,,0.25,WUHU21623XXSP,2013-04-01 13:49:00,
2013-04-01 09:54:00,40.8,37.8,29.69,SSE,157,0.0,0.0,89,0.00,,,0.25,WUHU21623XXSP,2013-04-01 13:54:00,
2013-04-01 09:59:00,40.8,37.5,29.69,SSE,157,0.0,0.0,88,0.00,,,0.25,WUHU21623XXSP,2013-04-01 13:59:00,
2013-04-01 10:04:00,41.2,37.7,29.69,SSE,157,0.0,0.0,88,0.00,,,0.25,WUHU21623XXSP,2013-04-01 14:04:00,
2013-04-01 10:09:00,41.2,37.9,29.69,SSE,157,0.0,1.6,88,0.00,,,0.25,WUHU21623XXSP,2013-04-01 14:09:00,
2013-04-01 10:14:00,41.5,37.9,29.69,SSE,157,0.0,1.6,87,0.00,,,0.25,WUHU21623XXSP,2013-04-01 14:14:00,
2013-04-01 10:19:00,41.7,37.8,29.70,SSE,157,0.0,0.0,86,0.00,,,0.25,WUHU21623XXSP,2013-04-01 14:19:00,
2013-04-01 10:24:00,42.4,38.5,29.69,SSE,157,0.0,1.3,86,0.00,,,0.25,WUHU21623XXSP,2013-04-01 14:24:00,
2013-04-01 10:29:00,42.4,38.2,29.69,SSE,157,0.0,1.3,85,0.00,,,0.25,WUHU21623XXSP,2013-04-01 14:29:00,
2013-04-01 10:34:00,42.1,37.5,29.70,SE,135,0.0,3.8,84,0.00,,,0.25,WUHU21623XXSP,2013-04-01 14:34:00,
2013-04-01 10:39:00,42.3,38.0,29.69,SSE,157,2.5,3.8,85,0.00,,,0.25,WUHU21623XXSP,2013-04-01 14:39:00,
2013-04-01 10:44:00,42.4,38.2,29.69,SSE,157,0.0,6.0,85,0.00,,,0.25,WUHU21623XXSP,2013-04-01 14:44:00,
2013-04-01 10:49:00,42.6,38.1,29.69,SSE,157,0.0,6.0,84,0.00,,,0.25,WUHU21623XXSP,2013-04-01 14:49:00,
2013-04-01 10:54:00,43.2,38.3,29.70,SSW,202,0.0,4.7,83,0.00,,,0.25,WUHU21623XXSP,2013-04-01 14:54:00,
2013-04-01 10:59:00,43.3,38.5,29.70,SSE,157,0.0,4.7,83,0.00,,,0.25,WUHU21623XXSP,2013-04-01 14:59:00,
2013-04-01 11:04:00,43.5,38.1,29.69,West,270,0.0,13.9,81,0.00,,,0.25,WUHU21623XXSP,2013-04-01 15:04:00,
2013-04-01 11:09:00,44.1,38.3,29.69,SE,135,7.4,13.9,80,0.00,,,0.25,WUHU21623XXSP,2013-04-01 15:09:00,
2013-04-01 11:14:00,44.8,38.7,29.69,SW,225,0.0,7.4,79,0.00,,,0.25,WUHU21623XXSP,2013-04-01 15:14:00,
2013-04-01 11:19:00,45.5,39.4,29.69,SSE,157,8.7,13.2,79,0.00,,,0.25,WUHU21623XXSP,2013-04-01 15:19:00,
2013-04-01 11:24:00,45.9,39.1,29.68,SSW,202,0.0,13.2,77,0.00,,,0.25,WUHU21623XXSP,2013-04-01 15:24:00,
2013-04-01 11:29:00,46.2,39.4,29.68,SSE,157,1.6,8.5,77,0.00,,,0.25,WUHU21623XXSP,2013-04-01 15:29:00,
2013-04-01 11:34:00,46.6,39.4,29.67,SSE,157,4.3,6.5,76,0.00,,,0.25,WUHU21623XXSP,2013-04-01 15:34:00,
2013-04-01 11:39:00,47.1,39.9,29.68,SSE,157,3.1,5.8,76,0.00,,,0.25,WUHU21623XXSP,2013-04-01 15:39:00,
2013-04-01 11:44:00,47.1,39.2,29.67,SSE,157,0.0,7.6,74,0.00,,,0.25,WUHU21623XXSP,2013-04-01 15:44:00,
2013-04-01 11:49:00,47.5,39.2,29.68,South,180,0.0,7.6,73,0.00,,,0.25,WUHU21623XXSP,2013-04-01 15:49:00,
2013-04-01 11:54:00,47.8,39.9,29.68,SE,135,0.0,6.7,74,0.00,,,0.25,WUHU21623XXSP,2013-04-01 15:54:00,
2013-04-01 11:59:00,48.0,39.7,29.67,SE,135,0.0,3.1,73,0.00,,,0.25,WUHU21623XXSP,2013-04-01 15:59:00,
2013-04-01 12:04:00,48.0,39.0,29.67,SW,225,0.0,4.5,71,0.00,,,0.25,WUHU21623XXSP,2013-04-01 16:04:00,
2013-04-01 12:09:00,48.0,39.0,29.67,SE,135,3.1,10.7,71,0.00,,,0.25,WUHU21623XXSP,2013-04-01 16:09:00,
2013-04-01 12:14:00,48.0,39.0,29.67,SSW,202,0.0,10.7,71,0.00,,,0.25,WUHU21623XXSP,2013-04-01 16:14:00,
2013-04-01 12:19:00,48.4,39.4,29.66,South,180,3.4,8.3,71,0.00,,,0.25,WUHU21623XXSP,2013-04-01 16:19:00,
2013-04-01 12:24:00,48.0,38.7,29.66,SE,135,0.0,10.3,70,0.00,,,0.25,WUHU21623XXSP,2013-04-01 16:24:00,
2013-04-01 12:29:00,48.2,39.2,29.66,SSE,157,0.0,10.3,71,0.00,,,0.25,WUHU21623XXSP,2013-04-01 16:29:00,
2013-04-01 12:34:00,48.6,39.2,29.66,SSE,157,0.0,6.9,70,0.00,,,0.25,WUHU21623XXSP,2013-04-01 16:34:00,
2013-04-01 12:39:00,48.6,39.2,29.65,South,180,0.0,6.9,70,0.00,,,0.25,WUHU21623XXSP,2013-04-01 16:39:00,
2013-04-01 12:44:00,48.2,39.2,29.65,South,180,0.0,2.7,71,0.00,,,0.25,WUHU21623XXSP,2013-04-01 16:44:00,
2013-04-01 12:49:00,48.2,39.2,29.65,SSE,157,0.0,4.3,71,0.00,,,0.25,WUHU21623XXSP,2013-04-01 16:49:00,
2013-04-01 12:54:00,48.0,39.0,29.65,SSE,157,0.0,5.1,71,0.00,,,0.25,WUHU21623XXSP,2013-04-01 16:54:00,
2013-04-01 12:59:00,48.0,39.0,29.64,SE,135,0.0,5.1,71,0.00,,,0.25,WUHU21623XXSP,2013-04-01 16:59:00,
2013-04-01 13:04:00,48.0,39.0,29.64,ESE,112,3.8,5.6,71,0.00,,,0.25,WUHU21623XXSP,2013-04-01 17:04:00,
2013-04-01 13:09:00,48.9,40.2,29.64,SE,135,1.6,6.7,72,0.00,,,0.25,WUHU21623XXSP,2013-04-01 17:09:00,
2013-04-01 13:16:00,49.6,39.9,29.64,SSE,157,0.0,6.7,69,0.00,,,0.25,WUHU21623XXSP,2013-04-01 17:16:00,
2013-04-01 13:21:00,49.8,39.7,29.63,South,180,0.7,6.7,68,0.00,,,0.25,WUHU21623XXSP,2013-04-01 17:21:00,
2013-04-01 13:26:00,50.7,40.5,29.63,SSE,157,9.2,13.2,68,0.00,,,0.25,WUHU21623XXSP,2013-04-01 17:26:00,
2013-04-01 13:31:00,51.6,40.2,29.63,SSE,157,5.6,13.2,65,0.00,,,0.25,WUHU21623XXSP,2013-04-01 17:31:00,
2013-04-01 13:36:00,52.3,40.5,29.63,SE,135,4.0,7.6,64,0.00,,,0.25,WUHU21623XXSP,2013-04-01 17:36:00,
2013-04-01 13:41:00,53.2,40.9,29.62,SE,135,0.0,11.0,63,0.00,,,0.25,WUHU21623XXSP,2013-04-01 17:41:00,
2013-04-01 13:46:00,52.7,40.0,29.62,SE,135,0.0,11.0,62,0.00,,,0.25,WUHU21623XXSP,2013-04-01 17:46:00,
2013-04-01 13:51:00,52.7,40.4,29.61,SE,135,0.0,11.0,63,0.00,,,0.25,WUHU21623XXSP,2013-04-01 17:51:00,
2013-04-01 13:56:00,52.5,39.4,29.61,SSE,157,8.1,9.8,61,0.00,,,0.25,WUHU21623XXSP,2013-04-01 17:56:00,
2013-04-01 14:01:00,51.6,38.5,29.62,SSW,202,5.6,13.4,61,0.00,,,0.25,WUHU21623XXSP,2013-04-01 18:01:00,
2013-04-01 14:06:00,50.4,38.2,29.62,SSE,157,5.8,15.2,63,0.00,,,0.25,WUHU21623XXSP,2013-04-01 18:06:00,
2013-04-01 14:11:00,48.6,38.8,29.63,SE,135,9.2,15.2,69,0.00,,,0.25,WUHU21623XXSP,2013-04-01 18:11:00,
2013-04-01 14:16:00,44.6,36.4,29.65,SW,225,0.0,15.2,73,0.02,,,0.27,WUHU21623XXSP,2013-04-01 18:16:00,
2013-04-01 14:21:00,42.4,36.0,29.65,SW,225,0.0,13.2,78,0.02,,,0.27,WUHU21623XXSP,2013-04-01 18:21:00,
2013-04-01 14:26:00,41.7,36.3,29.65,SSE,157,0.0,7.8,81,0.02,,,0.27,WUHU21623XXSP,2013-04-01 18:26:00,
2013-04-01 14:31:00,41.7,36.6,29.65,WSW,247,0.0,9.2,82,0.02,,,0.27,WUHU21623XXSP,2013-04-01 18:31:00,
2013-04-01 14:36:00,42.1,37.5,29.65,SSW,202,0.0,9.2,84,0.02,,,0.27,WUHU21623XXSP,2013-04-01 18:36:00,
2013-04-01 14:41:00,42.4,37.9,29.66,NE,45,0.0,6.5,84,0.02,,,0.27,WUHU21623XXSP,2013-04-01 18:41:00,
2013-04-01 14:46:00,42.6,38.1,29.66,SSE,157,6.3,6.5,84,0.02,,,0.27,WUHU21623XXSP,2013-04-01 18:46:00,
2013-04-01 14:52:00,42.6,38.1,29.65,NE,45,0.9,10.7,84,0.02,,,0.27,WUHU21623XXSP,2013-04-01 18:52:00,
2013-04-01 14:57:00,43.0,38.4,29.66,SSE,157,0.0,10.7,84,0.04,,,0.29,WUHU21623XXSP,2013-04-01 18:57:00,
2013-04-01 15:02:00,43.0,38.4,29.66,SSE,157,0.0,8.3,84,0.04,,,0.29,WUHU21623XXSP,2013-04-01 19:02:00,
2013-04-01 15:07:00,42.4,37.9,29.66,South,180,2.2,8.7,84,0.04,,,0.29,WUHU21623XXSP,2013-04-01 19:07:00,
2013-04-01 15:12:00,41.9,37.4,29.65,SSW,202,14.5,14.5,84,0.02,,,0.29,WUHU21623XXSP,2013-04-01 19:12:00,
2013-04-01 15:17:00,42.1,37.5,29.65,WNW,292,0.0,14.5,84,0.02,,,0.29,WUHU21623XXSP,2013-04-01 19:17:00,
2013-04-01 15:22:00,42.6,38.1,29.65,SE,135,0.0,9.8,84,0.02,,,0.29,WUHU21623XXSP,2013-04-01 19:22:00,
2013-04-01 15:27:00,42.8,38.0,29.66,SSE,157,0.0,10.5,83,0.02,,,0.29,WUHU21623XXSP,2013-04-01 19:27:00,
2013-04-01 15:32:00,43.2,38.0,29.66,South,180,0.0,10.5,82,0.02,,,0.29,WUHU21623XXSP,2013-04-01 19:32:00,
2013-04-01 15:37:00,43.9,38.7,29.66,South,180,0.0,9.4,82,0.02,,,0.29,WUHU21623XXSP,2013-04-01 19:37:00,
2013-04-01 15:42:00,45.0,39.5,29.66,SSE,157,4.3,9.4,81,0.02,,,0.29,WUHU21623XXSP,2013-04-01 19:42:00,
2013-04-01 15:47:00,45.0,38.9,29.66,West,270,0.0,13.6,79,0.02,,,0.29,WUHU21623XXSP,2013-04-01 19:47:00,
2013-04-01 15:52:00,45.0,38.5,29.66,SSE,157,5.1,13.6,78,0.00,,,0.29,WUHU21623XXSP,2013-04-01 19:52:00,
2013-04-01 15:57:00,44.4,37.3,29.66,North,0,0.0,11.0,76,0.00,,,0.29,WUHU21623XXSP,2013-04-01 19:57:00,
2013-04-01 16:02:00,43.9,36.8,29.67,South,180,0.0,11.0,76,0.00,,,0.29,WUHU21623XXSP,2013-04-01 20:02:00,
2013-04-01 16:07:00,43.0,35.9,29.66,NW,315,4.0,13.6,76,0.00,,,0.29,WUHU21623XXSP,2013-04-01 20:07:00,
2013-04-01 16:12:00,42.6,35.6,29.66,WSW,247,0.0,14.5,76,0.00,,,0.29,WUHU21623XXSP,2013-04-01 20:12:00,
2013-04-01 16:17:00,42.4,35.4,29.67,SSE,157,0.0,17.9,76,0.00,,,0.29,WUHU21623XXSP,2013-04-01 20:17:00,
2013-04-01 16:22:00,41.7,33.7,29.67,SW,225,11.6,17.9,73,0.00,,,0.29,WUHU21623XXSP,2013-04-01 20:22:00,
2013-04-01 16:28:00,41.2,32.8,29.67,SW,225,6.3,11.6,72,0.00,,,0.29,WUHU21623XXSP,2013-04-01 20:28:00,
2013-04-01 16:33:00,40.6,32.3,29.68,East,90,7.8,12.8,72,0.00,,,0.29,WUHU21623XXSP,2013-04-01 20:33:00,
2013-04-01 16:38:00,40.1,31.8,29.68,South,180,5.8,12.8,72,0.00,,,0.29,WUHU21623XXSP,2013-04-01 20:38:00,
2013-04-01 16:43:00,39.9,31.9,29.68,SSE,157,6.5,15.7,73,0.00,,,0.29,WUHU21623XXSP,2013-04-01 20:43:00,
2013-04-01 16:48:00,39.9,31.6,29.68,NNW,337,0.0,15.7,72,0.00,,,0.29,WUHU21623XXSP,2013-04-01 20:48:00,
2013-04-01 16:53:00,39.9,31.6,29.69,SSE,157,0.0,11.9,72,0.00,,,0.29,WUHU21623XXSP,2013-04-01 20:53:00,
2013-04-01 16:58:00,39.9,31.2,29.68,SW,225,0.0,12.1,71,0.00,,,0.29,WUHU21623XXSP,2013-04-01 20:58:00,
2013-04-01 17:03:00,39.7,31.1,29.69,NNW,337,0.0,13.0,71,0.00,,,0.29,WUHU21623XXSP,2013-04-01 21:03:00,
2013-04-01 17:08:00,39.7,31.1,29.69,WSW,247,3.4,13.0,71,0.00,,,0.29,WUHU21623XXSP,2013-04-01 21:08:00,
2013-04-01 17:12:00,39.7,30.7,29.69,WSW,247,3.8,9.6,70,0.00,,,0.29,WUHU21623XXSP,2013-04-01 21:12:00,
2013-04-01 17:17:00,39.6,30.2,29.69,ENE,67,4.7,12.5,69,0.00,,,0.29,WUHU21623XXSP,2013-04-01 21:17:00,
2013-04-01 17:22:00,39.4,28.5,29.70,West,270,6.0,12.5,65,0.00,,,0.29,WUHU21623XXSP,2013-04-01 21:22:00,
2013-04-01 17:27:00,39.0,27.4,29.70,South,180,10.3,17.7,63,0.00,,,0.29,WUHU21623XXSP,2013-04-01 21:27:00,
2013-04-01 17:32:00,38.5,26.9,29.71,SE,135,6.5,17.7,63,0.00,,,0.29,WUHU21623XXSP,2013-04-01 21:32:00,
2013-04-01 17:37:00,38.3,27.1,29.71,East,90,5.4,16.1,64,0.00,,,0.29,WUHU21623XXSP,2013-04-01 21:37:00,
2013-04-01 17:42:00,37.9,26.8,29.71,ESE,112,4.0,15.0,64,0.00,,,0.29,WUHU21623XXSP,2013-04-01 21:42:00,
2013-04-01 17:47:00,37.9,27.2,29.72,NW,315,0.0,11.9,65,0.00,,,0.29,WUHU21623XXSP,2013-04-01 21:47:00,
2013-04-01 17:52:00,37.8,26.3,29.71,SW,225,0.0,11.9,63,0.00,,,0.29,WUHU21623XXSP,2013-04-01 21:52:00,
2013-04-01 17:57:00,37.6,26.1,29.72,WSW,247,5.6,11.4,63,0.00,,,0.29,WUHU21623XXSP,2013-04-01 21:57:00,
2013-04-01 18:02:00,37.6,24.5,29.72,SSW,202,0.0,13.2,59,0.00,,,0.29,WUHU21623XXSP,2013-04-01 22:02:00,
2013-04-01 18:07:00,37.4,24.4,29.73,WSW,247,2.5,15.4,59,0.00,,,0.29,WUHU21623XXSP,2013-04-01 22:07:00,
2013-04-01 18:12:00,37.2,24.6,29.73,SW,225,0.0,15.4,60,0.00,,,0.29,WUHU21623XXSP,2013-04-01 22:12:00,
2013-04-01 18:17:00,37.0,24.5,29.73,South,180,9.4,13.2,60,0.00,,,0.29,WUHU21623XXSP,2013-04-01 22:17:00,
2013-04-01 18:22:00,36.9,23.4,29.74,West,270,0.0,14.1,58,0.00,,,0.29,WUHU21623XXSP,2013-04-01 22:22:00,
2013-04-01 18:27:00,36.5,23.6,29.74,SE,135,6.7,15.0,59,0.00,,,0.29,WUHU21623XXSP,2013-04-01 22:27:00,
2013-04-01 18:33:00,36.1,22.8,29.73,NW,315,1.8,15.0,58,0.00,,,0.29,WUHU21623XXSP,2013-04-01 22:33:00,
2013-04-01 18:38:00,36.1,21.5,29.74,South,180,5.8,13.6,55,0.00,,,0.29,WUHU21623XXSP,2013-04-01 22:38:00,
2013-04-01 18:43:00,35.8,21.6,29.74,South,180,3.6,13.6,56,0.00,,,0.29,WUHU21623XXSP,2013-04-01 22:43:00,
2013-04-01 18:48:00,35.8,21.2,29.75,East,90,0.0,10.7,55,0.00,,,0.29,WUHU21623XXSP,2013-04-01 22:48:00,
2013-04-01 18:53:00,35.4,20.4,29.76,SW,225,1.8,13.9,54,0.00,,,0.29,WUHU21623XXSP,2013-04-01 22:53:00,
2013-04-01 18:58:00,35.4,20.4,29.76,South,180,7.4,13.9,54,0.00,,,0.29,WUHU21623XXSP,2013-04-01 22:58:00,
2013-04-01 19:03:00,35.2,18.9,29.76,SSW,202,4.7,16.1,51,0.00,,,0.29,WUHU21623XXSP,2013-04-01 23:03:00,
2013-04-01 19:08:00,34.9,18.6,29.76,NW,315,4.9,19.5,51,0.00,,,0.29,WUHU21623XXSP,2013-04-01 23:08:00,
2013-04-01 19:13:00,34.9,18.6,29.76,WSW,247,2.0,19.5,51,0.00,,,0.29,WUHU21623XXSP,2013-04-01 23:13:00,
2013-04-01 19:18:00,34.7,18.0,29.76,NE,45,0.4,15.0,50,0.00,,,0.29,WUHU21623XXSP,2013-04-01 23:18:00,
2013-04-01 19:23:00,34.3,16.6,29.76,SE,135,0.0,15.0,48,0.00,,,0.29,WUHU21623XXSP,2013-04-01 23:23:00,
2013-04-01 19:28:00,34.3,17.6,29.76,NW,315,0.0,11.6,50,0.00,,,0.29,WUHU21623XXSP,2013-04-01 23:28:00,
2013-04-01 19:33:00,34.3,17.1,29.76,SSE,157,13.2,13.2,49,0.00,,,0.29,WUHU21623XXSP,2013-04-01 23:33:00,
2013-04-01 19:38:00,34.3,17.1,29.77,South,180,8.1,13.2,49,0.00,,,0.29,WUHU21623XXSP,2013-04-01 23:38:00,
2013-04-01 19:43:00,34.2,16.4,29.76,SE,135,9.2,13.0,48,0.00,,,0.29,WUHU21623XXSP,2013-04-01 23:43:00,
2013-04-01 19:48:00,33.8,16.1,29.77,West,270,1.6,12.1,48,0.00,,,0.29,WUHU21623XXSP,2013-04-01 23:48:00,
2013-04-01 19:53:00,33.8,14.5,29.78,SE,135,2.7,17.2,45,0.00,,,0.29,WUHU21623XXSP,2013-04-01 23:53:00,
2013-04-01 19:58:00,33.8,14.5,29.78,South,180,6.0,17.2,45,0.00,,,0.29,WUHU21623XXSP,2013-04-01 23:58:00,
2013-04-01 20:03:00,33.6,13.9,29.78,SW,225,9.4,13.2,44,0.00,,,0.29,WUHU21623XXSP,2013-04-02 00:03:00,
2013-04-01 20:08:00,33.6,13.9,29.78,South,180,0.0,13.2,44,0.00,,,0.29,WUHU21623XXSP,2013-04-02 00:08:00,
2013-04-01 20:13:00,33.6,13.9,29.78,SW,225,0.0,11.6,44,0.00,,,0.29,WUHU21623XXSP,2013-04-02 00:13:00,
2013-04-01 20:18:00,33.3,13.6,29.79,West,270,5.6,12.5,44,0.00,,,0.29,WUHU21623XXSP,2013-04-02 00:18:00,
2013-04-01 20:23:00,33.3,14.6,29.79,NW,315,0.0,12.5,46,0.00,,,0.29,WUHU21623XXSP,2013-04-02 00:23:00,
2013-04-01 20:28:00,32.9,14.7,29.79,WNW,292,0.0,18.3,47,0.00,,,0.29,WUHU21623XXSP,2013-04-02 00:28:00,
2013-04-01 20:33:00,32.5,14.4,29.79,NW,315,7.2,18.3,47,0.00,,,0.29,WUHU21623XXSP,2013-04-02 00:33:00,
2013-04-01 20:38:00,32.5,13.4,29.80,WNW,292,8.3,14.8,45,0.00,,,0.29,WUHU21623XXSP,2013-04-02 00:38:00,
2013-04-01 20:43:00,32.5,13.4,29.80,SSW,202,0.0,14.8,45,0.00,,,0.29,WUHU21623XXSP,2013-04-02 00:43:00,
2013-04-01 20:48:00,32.2,13.6,29.79,SSE,157,2.5,16.3,46,0.00,,,0.29,WUHU21623XXSP,2013-04-02 00:48:00,
2013-04-01 20:53:00,32.2,13.1,29.80,SSW,202,0.0,16.3,45,0.00,,,0.29,WUHU21623XXSP,2013-04-02 00:53:00,
2013-04-01 20:58:00,31.8,13.3,29.81,WSW,247,0.0,5.4,46,0.00,,,0.29,WUHU21623XXSP,2013-04-02 00:58:00,
2013-04-01 21:03:00,31.6,13.6,29.81,WSW,247,2.5,8.3,47,0.00,,,0.29,WUHU21623XXSP,2013-04-02 01:03:00,
2013-04-01 21:08:00,31.3,14.3,29.81,West,270,0.0,15.0,49,0.00,,,0.29,WUHU21623XXSP,2013-04-02 01:08:00,
2013-04-01 21:14:00,31.1,13.1,29.82,SSE,157,0.0,16.6,47,0.00,,,0.29,WUHU21623XXSP,2013-04-02 01:14:00,
2013-04-01 21:19:00,30.9,13.5,29.82,WSW,247,0.0,16.6,48,0.00,,,0.29,WUHU21623XXSP,2013-04-02 01:19:00,
2013-04-01 21:24:00,30.7,13.3,29.82,WNW,292,0.0,9.8,48,0.00,,,0.29,WUHU21623XXSP,2013-04-02 01:24:00,
2013-04-01 21:29:00,30.7,13.3,29.83,SSE,157,6.0,9.8,48,0.00,,,0.29,WUHU21623XXSP,2013-04-02 01:29:00,
2013-04-01 21:34:00,30.7,13.8,29.83,SSE,157,9.2,9.2,49,0.00,,,0.29,WUHU21623XXSP,2013-04-02 01:34:00,
2013-04-01 21:39:00,30.4,14.0,29.83,WSW,247,0.0,13.2,50,0.00,,,0.29,WUHU21623XXSP,2013-04-02 01:39:00,
2013-04-01 21:44:00,30.0,14.1,29.83,WNW,292,5.4,13.2,51,0.00,,,0.29,WUHU21623XXSP,2013-04-02 01:44:00,
2013-04-01 21:49:00,30.0,13.7,29.84,West,270,0.0,9.8,50,0.00,,,0.29,WUHU21623XXSP,2013-04-02 01:49:00,
2013-04-01 21:54:00,30.0,13.7,29.84,WNW,292,0.0,13.6,50,0.00,,,0.29,WUHU21623XXSP,2013-04-02 01:54:00,
2013-04-01 21:59:00,29.8,13.9,29.84,SSE,157,7.6,13.6,51,0.00,,,0.29,WUHU21623XXSP,2013-04-02 01:59:00,
2013-04-01 22:04:00,29.8,13.9,29.84,SSW,202,0.0,21.3,51,0.00,,,0.29,WUHU21623XXSP,2013-04-02 02:04:00,
2013-04-01 22:09:00,29.8,13.9,29.84,WSW,247,0.0,21.3,51,0.00,,,0.29,WUHU21623XXSP,2013-04-02 02:09:00,
2013-04-01 22:14:00,29.7,14.6,29.84,SW,225,4.5,10.7,53,0.00,,,0.29,WUHU21623XXSP,2013-04-02 02:14:00,
2013-04-01 22:19:00,29.5,14.4,29.84,WSW,247,3.4,10.7,53,0.00,,,0.29,WUHU21623XXSP,2013-04-02 02:19:00,
2013-04-01 22:24:00,29.5,14.0,29.84,SW,225,6.9,9.8,52,0.00,,,0.29,WUHU21623XXSP,2013-04-02 02:24:00,
2013-04-01 22:29:00,29.5,14.0,29.85,SSW,202,8.5,15.0,52,0.00,,,0.29,WUHU21623XXSP,2013-04-02 02:29:00,
2013-04-01 22:34:00,29.3,13.4,29.85,WNW,292,0.0,15.0,51,0.00,,,0.29,WUHU21623XXSP,2013-04-02 02:34:00,
2013-04-01 22:39:00,29.1,14.5,29.85,West,270,0.0,9.2,54,0.00,,,0.29,WUHU21623XXSP,2013-04-02 02:39:00,
2013-04-01 22:44:00,29.1,13.3,29.85,WNW,292,3.1,13.9,51,0.00,,,0.29,WUHU21623XXSP,2013-04-02 02:44:00,
2013-04-01 22:49:00,29.1,13.3,29.84,NW,315,3.1,13.9,51,0.00,,,0.29,WUHU21623XXSP,2013-04-02 02:49:00,
2013-04-01 22:54:00,29.1,13.7,29.85,NNE,22,0.0,8.7,52,0.00,,,0.29,WUHU21623XXSP,2013-04-02 02:54:00,
2013-04-01 22:59:00,29.1,13.7,29.85,NNE,22,0.0,12.8,52,0.00,,,0.29,WUHU21623XXSP,2013-04-02 02:59:00,
2013-04-01 23:04:00,28.9,14.3,29.85,NNW,337,6.3,12.8,54,0.00,,,0.29,WUHU21623XXSP,2013-04-02 03:04:00,
2013-04-01 23:09:00,28.8,14.2,29.84,West,270,0.0,9.8,54,0.00,,,0.29,WUHU21623XXSP,2013-04-02 03:09:00,
2013-04-01 23:14:00,28.6,13.2,29.84,WNW,292,6.9,9.8,52,0.00,,,0.29,WUHU21623XXSP,2013-04-02 03:14:00,
2013-04-01 23:19:00,28.6,13.2,29.84,SSE,157,1.8,11.9,52,0.00,,,0.29,WUHU21623XXSP,2013-04-02 03:19:00,
2013-04-01 23:24:00,28.6,13.6,29.84,SE,135,2.5,12.3,53,0.00,,,0.29,WUHU21623XXSP,2013-04-02 03:24:00,
2013-04-01 23:29:00,28.6,14.0,29.85,West,270,0.0,12.3,54,0.00,,,0.29,WUHU21623XXSP,2013-04-02 03:29:00,
2013-04-01 23:34:00,28.2,13.7,29.85,South,180,0.0,4.9,54,0.00,,,0.29,WUHU21623XXSP,2013-04-02 03:34:00,
2013-04-01 23:39:00,28.2,13.7,29.84,West,270,0.0,17.9,54,0.00,,,0.29,WUHU21623XXSP,2013-04-02 03:39:00,
2013-04-01 23:44:00,28.2,13.7,29.84,WSW,247,0.0,17.9,54,0.00,,,0.29,WUHU21623XXSP,2013-04-02 03:44:00,
2013-04-01 23:49:00,28.0,13.9,29.84,WNW,292,0.0,5.6,55,0.00,,,0.29,WUHU21623XXSP,2013-04-02 03:49:00,
2013-04-01 23:54:00,28.0,13.5,29.84,SW,225,0.0,5.6,54,0.00,,,0.29,WUHU21623XXSP,2013-04-02 03:54:00,
2013-04-01 23:59:00,28.0,13.5,29.84,WNW,292,0.0,8.7,54,0.00,,,0.29,WUHU21623XXSP,2013-04-02 03:59:00,